FALCON 9 R/B (44480 NORAD) Tracking and Keplerian Element Data

This shows tracking and keplerian element data for the satellite.

Feedback or suggestion? Click here.




ElementValue
Catalog44480
NameFALCON 9 R/B
Epoch Orbit22
Epoch Day228.81863873
Epoch Year2019
RAAN135.5702
Inclination26.0506
Eccentricity0.7288973
Argument of Perigee183.3262
Mean Anonmoly165.5405
Mean Motion2.28655122
Decay Rate5.604E-05
L11 44480U 19050B 19228.81863873 .00005604 00000-0 84781-3 0 9997
L22 44480 26.0506 135.5702 7288973 183.3262 165.5405 2.28655122 226

Live tracking and technical data element details for FALCON 9 R/B (NORAD 44480). FALCON 9 R/B can be tracked NOW for your location showing map with azimuth and elevation plus other details from your city location.

Track the satellite on the map from your city or location and see movement details for azimuth, elevation, latitude, longitude, range, height, and movement on the map or in text.







IsCatalogInMostPopularTable: catalog: 44480, numindb: 2
Update: records affected: 1



GetName: 44480 FALCON 9 R/B

Hit Count: updated at: Wed, 21 Aug 2019 12:05:16 GMT